Location: Unspecified
(43.4354°N, 0.0000°E)
Time: 14:55:37
(UTC+00:00)

A-11 Canister half - Pass Details

Date: 24 June 2019
Orbit: 1514 x 1686 km, 47.2° (Epoch: 19 August)

Event Time Altitude Azimuth Distance (km) Brightness Sun altitude
Rises 10:39:57 0° 242° (WSW) 4,911 11.6 63.8°
Reaches altitude 10° 10:43:08 10° 242° (WSW) 3,910 11.2 64.2°
Maximum altitude 10:53:11 86° 156° (SSE) 1,633 10.9 65.4°
Drops below altitude 10° 11:02:53 10° 69° (ENE) 3,786 11.3 66.5°
Sets 11:05:54 0° 69° (ENE) 4,750 11.6 66.8°
